Preview of NWS' New Version of Forecast
This preview is not operational and should not be used for support decisions.

Regional Weather Roundup (RWR)

Issued by National Weather Service (NWS)

                            
000
ASUS45 KABQ 200301
RWRNM 
NEW MEXICO REGIONAL WEATHER ROUNDUP
NATIONAL WEATHER SERVICE ALBUQUERQUE NM
900 PM MDT FRI APR 19 2019

NOTE: "FAIR" MEANS FEW OR NO CLOUDS BELOW 12,000 FEET AGL WITH NO
       SIGNIFICANT WEATHER OR OBSTRUCTIONS TO VISION.

      THIS PRODUCT IS RELEASED AS TWO VERSIONS.  ONE VERSION NEAR
      THE TOP OF THE HOUR CONTAINING PRELIMINARY DATA FROM ALBUQUERQUE
      AND OTHER STATIONS.  A FINAL VERSION WITH ADDITIONAL DATA IS 
      ISSUED ABOUT 10 MINUTES AFTER THE HOUR.
 
NMZ501-503-504-510>518-200400-
NORTHWEST PLATEAU/NORTHCENTRAL MOUNTAINS
  
CITY           SKY/WX    TMP DP  RH WIND       PRES   REMARKS
FARMINGTON     FAIR      66  10  11 CALM      30.07R                  
LOS ALAMOS       N/A     62  14  15 SW9       30.19R                  
SANTA FE       FAIR      59  24  26 W6        30.13R                  
TAOS           FAIR      56  22  26 SW10      30.19R                  

$$
NMZ402-403-502-505>509-200400-
WESTCENTRAL MOUNTAINS/SOUTHWEST MOUNTAINS
  
CITY           SKY/WX    TMP DP  RH WIND       PRES   REMARKS
GALLUP         FAIR      57  20  23 W3        30.14R                  
GRANTS         FAIR      55  21  26 CALM      30.17R                  
SILVER CITY    FAIR      58  16  19 CALM      30.12R                  

$$
NMZ407-409-411-412-200400-
SOUTHERN DESERTS
  
CITY           SKY/WX    TMP DP  RH WIND       PRES   REMARKS
DEMING         FAIR      70  20  15 E5        30.05R                  
ALAMOGORDO     FAIR      64  28  25 SE7       30.08R                  
T OR C         FAIR      71  12  10 S6        30.06R                  

$$
NMZ519>523-200400-
CENTRAL VALLEYS/CENTRAL HIGHLANDS
  
CITY           SKY/WX    TMP DP  RH WIND       PRES   REMARKS
ALBUQUERQUE    FAIR      65  32  29 S7        30.10R                  
DOUBLE EAGLE   CLEAR     54  37  54 S8        30.13R                  
CLINES CORNERS FAIR      52  27  38 W14       30.20R                  
BELEN          FAIR      65  27  24 SE7       30.09S                  
SOCORRO        NOT AVBL                                               

$$
NMZ524>526-539-540-200400-
SOUTHCENTRAL MOUNTAINS
  
CITY           SKY/WX    TMP DP  RH WIND       PRES   REMARKS
RUIDOSO        FAIR      57  18  21 SW8       30.24R                  

$$
NMZ527>531-200400-
NORTHEAST HIGHLANDS/NORTHEAST PLAINS
  
CITY           SKY/WX    TMP DP  RH WIND       PRES   REMARKS
LAS VEGAS      FAIR      52  31  44 SE15      30.16R                  
RATON          FAIR      54  33  45 SW8       30.13R                  
CLAYTON        FAIR      52  36  54 S6        30.08R                  

$$
NMZ532>537-200400-
EASTCENTRAL PLAINS
  
CITY           SKY/WX    TMP DP  RH WIND       PRES   REMARKS
SANTA ROSA     FAIR      61  30  31 SE10      30.08R                  
TUCUMCARI      FAIR      58  37  45 S9        30.04R                  
CANNON AFB     NOT AVBL                                               
CLOVIS AIRPORT FAIR      54  34  46 S6        30.11R                  

$$
NMZ028-029-538-200400-
SOUTHEAST PLAINS
  
CITY           SKY/WX    TMP DP  RH WIND       PRES   REMARKS
ROSWELL        FAIR      66  32  28 SE9       30.05R                  
ARTESIA        FAIR      66  30  26 SE13      30.07R                  
CARLSBAD       FAIR      64  30  27 SE8       30.06R                  
HOBBS          FAIR      55  32  41 SE8       30.13R                  


$$